sat.trackr.live / text

‹ back to catalog

STARLINK-31638

NORAD 59489 · 2024-071F

PAYLOAD ACTIVE UNKNOWN

§ Identity

Operator
Country
US
Launch date
2024-04-13
Launch site
AFETR
Launch vehicle
Mass (kg)
RCS (m²)

Purposes: comms

External: N2YO · Heavens-Above · Gunter

§ Orbital elements

Epoch: 2026-09-21T10:27:07.956864Z

Period
94.27 min
Inclination
43.0031°
Eccentricity
0.0001468
Mean motion
15.27574034 rev/d
Perigee alt
482.1 km
Apogee alt
484.1 km
Semi-major
6,861.2 km
B*
2.1875e-5
RAAN
314.1674°
Arg perigee
253.2460°
Mean anomaly
106.8231°
Rev number
13,814

§ Raw data

STARLINK-316381 59489U 24071F   26264.43550876  .00000340  00000+0  21875-4 0  99902 59489  43.0031 314.1674 0001468 253.2460 106.8231 15.27574034138141

JSON: /api/v1/satellites/59489 · /tle

For live sub-satellite position, see the globe view (requires WebGL).

§ Visibility from observer

Set your observer location to see the next 7 days of passes ≥ 10°. The values pass through the URL so the page stays shareable.

No JS? Fill the form by hand. The geolocation button needs JavaScript.